Theta_e
349 349 348 346 346 347 347 345 340 336 332 329 331 333 337 338 339 339 338 336 334 334 335 336 338 338 339 340 342 344 344 345 346 345 345 344 341 340 341 342 343 344 343 342 341 342 345 345 345 345 346 346 345 346 346 345 344 344 343 344 344 344 344 344 344 344 344 344 345 345 345 344 344 344 343 341 339 338 338 338 338 335 335 334 334
349 349 348 347 347 347 347 347 345 342 337 332 330 331 335 337 338 339 338 335 334 334 335 337 337 338 338 339 341 343 344 345 346 345 346 346 342 340 341 342 343 344 343 343 341 341 344 345 345 346 346 346 345 345 346 345 344 343 343 344 344 343 343 343 343 343 343 344 343 345 345 343 342 342 341 340 341 341 340 339 338 336 336 336 337
349 349 349 348 348 348 348 347 346 345 343 338 333 331 332 335 337 338 338 336 334 335 336 337 338 338 338 339 340 343 343 344 346 346 347 346 342 339 341 341 341 343 343 343 341 341 344 345 345 344 345 345 344 344 345 345 345 344 344 344 343 343 343 342 342 343 344 344 343 344 345 343 342 341 341 340 341 342 341 341 340 339 339 339 338
350 349 349 349 348 348 348 347 346 346 345 343 340 335 332 333 335 336 337 336 335 334 336 338 339 340 340 340 340 342 343 344 346 346 346 344 341 339 341 341 341 342 343 343 342 342 343 344 344 344 343 344 344 344 344 345 345 344 343 343 342 344 343 342 342 342 343 344 344 345 344 343 344 342 341 340 340 341 341 340 340 340 340 340 340
349 349 349 348 349 348 348 347 347 346 345 345 344 341 335 332 334 335 335 337 336 335 336 337 339 341 341 341 340 341 342 343 345 345 344 342 340 339 340 342 342 342 342 343 343 342 342 343 343 344 343 344 343 344 345 345 345 344 343 342 342 344 344 342 343 342 343 343 344 345 344 345 345 343 343 341 340 341 340 340 340 339 339 340 340
348 348 348 348 349 348 347 347 347 347 346 345 345 344 340 335 334 334 335 336 336 336 336 337 339 340 341 340 338 338 340 341 344 344 343 341 341 340 339 340 341 343 342 342 343 342 342 343 344 344 343 343 343 345 345 344 345 344 343 343 343 343 344 343 343 343 342 342 343 344 344 345 345 343 344 342 339 339 340 340 340 339 339 339 339
347 348 348 348 348 348 348 347 347 346 346 345 345 345 344 340 336 335 334 335 336 336 336 337 338 339 340 340 337 335 337 339 342 343 342 343 345 344 341 339 341 342 343 342 342 342 343 344 345 344 343 343 344 344 343 343 344 344 343 343 343 343 344 343 344 343 342 343 342 343 343 344 344 343 344 343 341 340 339 340 342 341 339 338 338
348 347 347 347 348 348 347 347 347 346 345 345 345 345 345 343 339 336 335 334 335 336 336 337 338 338 339 340 338 335 335 337 342 344 344 344 346 345 341 340 341 342 343 342 342 342 342 343 344 344 344 344 344 344 343 343 343 343 344 344 343 344 343 343 343 343 343 343 343 343 343 344 343 343 343 343 343 344 342 342 342 341 340 339 338
348 348 347 347 347 347 346 347 347 345 345 345 346 345 345 345 343 340 337 335 334 335 336 337 337 338 338 339 338 336 334 336 341 344 345 345 345 345 341 340 341 342 343 342 343 343 342 343 343 344 344 344 344 345 344 342 342 343 343 344 344 344 344 343 343 343 344 344 343 342 343 344 343 343 343 342 342 344 345 344 343 341 341 341 338
349 349 348 347 347 346 346 346 346 345 346 345 346 345 345 345 345 343 341 337 335 334 335 335 336 337 337 338 338 336 334 335 338 344 346 344 344 343 340 339 339 338 340 341 342 343 343 343 343 344 344 344 344 345 345 344 343 343 343 342 342 342 343 343 343 343 343 344 342 342 343 343 342 342 343 344 343 343 344 346 345 342 342 341 340
349 348 349 348 347 347 346 346 346 346 346 346 346 346 346 345 345 345 344 341 338 335 334 335 335 336 336 336 336 336 335 334 335 340 344 343 343 342 339 337 336 335 336 338 339 341 342 343 344 344 345 344 344 345 346 345 345 345 344 343 341 342 343 343 344 343 343 343 342 341 343 343 342 343 343 342 344 345 345 346 345 343 341 342 340
349 349 349 348 348 347 347 346 346 346 346 346 346 346 346 346 345 345 345 344 341 338 336 335 335 335 336 335 336 336 336 335 334 336 340 342 341 341 338 336 336 335 334 335 336 338 340 342 343 344 344 344 343 344 345 346 347 346 346 345 343 342 342 343 343 343 342 343 342 340 342 343 343 343 342 342 343 344 343 345 344 342 341 342 339
349 349 349 349 348 348 347 347 347 346 346 346 346 346 346 346 346 345 346 345 344 341 338 336 334 334 335 335 335 336 335 335 334 334 337 339 340 339 337 335 335 334 334 333 334 335 338 340 341 343 343 344 344 343 343 345 347 347 347 346 345 345 344 344 344 343 343 343 342 341 341 344 344 342 342 343 344 344 342 342 342 341 342 342 338
350 349 349 349 348 348 347 347 347 347 347 347 346 346 346 347 346 346 346 345 345 343 342 339 336 334 333 334 334 335 335 335 335 334 335 337 339 339 337 335 335 334 334 333 333 334 335 338 340 341 343 343 344 344 343 344 347 348 348 347 346 346 345 345 344 343 343 343 343 341 342 345 345 342 341 343 346 347 344 341 341 341 342 341 337
350 350 350 349 349 348 347 347 347 347 347 346 346 346 347 347 347 347 347 346 345 344 343 342 340 337 334 333 332 333 334 334 335 334 334 335 337 338 337 336 335 335 334 333 332 332 332 333 336 340 342 343 343 343 343 344 346 348 348 347 346 346 345 346 345 344 343 343 343 342 342 344 344 342 342 343 345 347 344 342 341 342 345 345 340
350 350 350 349 349 348 348 348 347 347 347 347 347 347 347 347 347 348 347 347 346 345 344 343 343 341 338 335 332 331 332 333 334 334 333 334 335 336 337 336 335 335 333 332 332 332 332 332 333 335 339 341 342 342 342 343 344 345 347 347 347 346 347 347 346 345 344 343 343 342 342 343 342 341 342 343 345 346 345 344 343 343 346 347 343
349 350 350 350 349 349 348 348 348 348 348 347 347 347 347 347 347 348 348 347 346 345 345 344 343 344 342 338 334 330 330 331 333 334 333 333 333 334 335 335 335 335 334 332 332 333 334 335 335 334 335 337 340 342 342 342 343 343 345 346 346 346 346 347 346 345 345 344 343 342 341 341 340 340 341 343 345 347 346 346 345 344 345 346 347
346 349 350 349 349 349 349 348 348 348 348 348 348 347 348 348 348 348 348 348 347 346 345 345 344 344 345 341 337 332 329 329 331 333 333 333 333 333 334 333 333 333 333 332 332 333 334 335 336 335 334 334 337 340 341 341 341 342 342 343 345 345 345 346 345 345 345 345 344 341 339 340 340 340 341 343 346 347 346 346 345 345 345 344 346
344 347 349 350 350 349 349 348 348 348 348 348 348 348 348 348 348 348 348 347 347 347 346 345 345 344 345 344 341 336 331 328 329 331 332 333 333 332 332 331 330 330 331 331 331 331 332 333 334 334 334 333 335 337 338 339 340 340 341 341 341 342 343 345 345 344 345 345 345 343 340 340 340 341 341 344 346 346 346 346 345 344 345 344 343
344 345 347 350 350 349 349 349 348 348 348 348 348 348 348 348 348 348 348 348 348 347 347 346 345 345 345 345 344 342 338 332 329 329 330 332 332 331 331 330 329 328 328 328 329 330 330 331 332 333 333 332 333 334 334 334 335 336 337 338 339 340 341 342 344 344 344 344 345 344 342 340 340 340 342 343 345 346 345 345 345 344 343 344 343
343 345 347 349 350 350 349 348 348 348 348 348 348 347 347 347 348 348 348 348 348 348 347 346 346 345 346 346 345 345 343 339 334 330 328 330 331 331 330 330 328 328 327 327 328 329 330 330 331 332 332 331 330 330 331 331 331 331 333 334 335 337 338 339 342 343 343 343 343 344 343 342 340 340 341 343 344 345 344 344 344 343 343 343 342
342 345 348 349 350 350 349 348 348 348 348 348 347 347 348 347 348 348 347 348 348 348 347 346 346 346 346 346 346 346 345 344 341 335 330 329 330 331 330 329 329 327 327 327 327 328 329 330 331 331 330 330 329 328 329 329 329 329 330 330 332 333 335 337 339 341 342 342 341 342 343 343 342 341 341 342 342 342 342 342 342 342 342 341 340
342 344 346 349 350 351 350 349 349 348 348 348 347 347 348 348 348 347 347 348 347 348 347 347 346 346 346 346 346 346 346 345 345 341 336 331 329 329 330 330 329 328 327 327 327 327 327 328 329 330 329 329 329 329 328 328 327 327 328 328 329 331 332 335 337 338 340 340 340 340 341 342 343 342 341 341 342 341 341 341 340 340 340 340 340
342 344 345 346 349 350 350 351 350 348 348 347 347 347 347 347 347 347 347 348 348 348 347 347 346 346 346 346 346 347 346 346 345 344 343 338 333 330 328 329 329 329 328 328 327 327 327 327 328 328 328 329 328 329 329 328 327 327 327 327 327 328 329 331 333 336 337 339 339 339 339 339 340 341 341 341 341 341 341 341 340 340 340 340 341
337 342 344 346 347 347 349 350 350 349 348 347 347 347 347 347 346 347 347 347 347 348 347 347 347 346 346 346 346 346 347 346 346 345 345 344 341 337 333 330 328 328 328 328 328 328 328 327 327 326 327 327 328 327 328 328 327 327 327 327 327 327 328 329 330 332 335 336 338 338 338 339 339 339 339 339 340 340 341 341 341 340 340 340 340
330 334 339 343 345 346 347 348 349 350 349 348 347 347 347 347 347 347 347 347 346 347 347 347 347 346 346 346 347 347 347 347 347 346 346 345 345 343 341 338 335 332 330 329 328 328 328 328 327 326 326 326 326 326 326 327 327 327 327 327 327 326 326 328 329 330 332 334 336 337 337 337 337 338 337 337 337 337 338 339 340 339 339 340 339
326 327 331 336 341 345 347 348 348 349 349 349 348 348 347 346 347 347 346 346 347 346 347 347 346 347 347 346 347 347 347 347 347 347 346 346 345 345 345 344 342 340 338 335 333 331 328 327 327 327 327 326 326 326 326 326 326 326 326 326 327 326 326 326 328 329 330 331 334 337 337 337 337 336 336 336 336 336 336 336 337 337 337 337 337
326 325 326 328 333 338 343 346 347 348 348 348 348 347 347 347 347 347 347 347 347 347 347 347 347 346 346 347 347 347 347 347 347 347 347 346 346 346 345 345 344 344 343 342 341 338 335 332 330 327 327 327 327 326 326 326 326 326 326 326 326 326 326 326 327 328 329 329 331 334 336 337 337 336 336 336 336 336 335 335 335 335 336 336 336
327 325 323 324 325 329 334 340 344 347 348 348 348 347 347 347 346 346 346 346 347 347 347 347 347 346 347 348 348 347 347 347 347 347 347 347 346 346 346 346 345 345 345 345 345 344 343 341 337 333 330 328 327 327 327 327 326 326 326 326 326 326 326 327 327 329 329 330 329 331 333 335 336 336 336 336 336 336 336 336 335 335 335 336 336
328 326 324 323 323 324 325 330 336 341 345 347 348 348 347 347 346 346 346 346 346 347 348 347 347 348 348 348 347 347 347 347 347 348 348 347 347 346 346 347 346 346 346 346 346 346 346 346 345 341 337 333 330 328 328 328 327 327 327 327 327 328 328 328 329 329 330 330 329 329 330 331 333 334 335 335 334 335 335 335 335 335 335 335 336
328 327 326 323 323 322 323 324 328 332 337 342 346 348 349 349 347 346 346 346 346 346 347 347 348 348 348 347 347 347 347 347 348 348 347 347 347 347 346 347 346 346 346 347 347 347 347 348 348 347 344 341 335 331 331 330 329 329 328 328 329 330 330 331 331 331 331 330 329 328 329 330 331 331 333 333 334 334 334 334 334 335 335 335 335
327 327 327 325 324 324 322 322 323 324 328 335 341 345 348 350 349 348 346 346 346 347 346 346 348 348 348 348 348 347 347 348 348 347 348 347 347 347 347 347 347 347 347 347 347 348 349 349 350 350 349 347 341 336 333 333 332 332 331 332 333 333 333 333 333 333 332 331 330 329 329 330 330 331 331 332 332 333 333 333 333 334 334 334 334
325 326 327 327 326 326 324 322 322 322 323 327 334 341 346 349 351 351 349 347 346 347 346 346 347 347 347 348 347 347 347 347 348 348 348 348 348 347 348 347 347 347 347 348 348 348 349 349 351 352 352 350 347 341 337 335 335 334 334 335 336 336 336 335 335 334 333 332 331 329 329 330 330 330 330 331 332 333 333 333 333 333 333 333 333
323 323 326 327 327 326 325 323 322 323 323 323 328 335 341 346 350 353 352 349 348 347 346 346 346 347 347 347 347 347 347 347 348 348 348 348 348 348 348 348 348 348 348 348 348 349 350 350 351 352 353 353 352 348 344 340 337 336 336 336 338 337 337 336 336 336 334 334 332 331 329 329 329 331 331 331 332 333 333 334 333 333 333 332 332
322 322 324 327 327 327 326 324 322 322 323 323 323 327 334 340 346 352 354 352 351 349 347 347 347 346 347 347 347 348 348 348 348 348 347 348 348 348 349 349 348 349 349 350 351 350 351 352 352 353 354 354 355 353 350 346 343 340 338 338 339 339 339 338 337 336 336 336 335 332 330 330 330 331 331 331 332 333 334 334 334 334 333 333 332
323 322 322 324 326 327 327 325 323 322 323 323 322 325 329 333 338 345 351 352 353 352 350 348 348 348 347 347 347 348 348 348 348 348 348 348 349 349 349 349 349 349 350 352 352 352 353 353 353 354 354 355 355 355 354 352 348 345 344 343 342 341 340 339 338 337 336 337 335 334 332 331 331 331 331 331 332 333 334 335 334 334 334 333 332
322 322 321 322 324 327 327 327 325 323 323 322 322 323 327 330 333 338 343 346 349 352 353 352 351 349 349 348 348 348 349 349 349 349 349 350 350 350 350 350 351 350 350 351 353 354 354 354 355 355 355 355 355 355 355 354 351 350 350 348 345 342 341 340 339 338 338 336 336 334 333 331 331 331 331 331 332 333 333 334 333 334 333 333 332
321 322 322 321 321 324 326 327 326 326 324 323 322 322 324 329 332 336 339 342 344 347 351 353 353 352 351 350 349 349 349 350 350 350 350 351 352 352 352 352 353 353 353 353 353 354 354 355 355 356 356 356 355 354 354 354 352 352 352 351 349 346 343 341 340 339 338 337 336 334 333 332 332 332 331 332 332 333 333 333 333 333 332 332 332
320 321 322 322 321 322 323 325 326 327 326 324 322 322 323 324 329 334 338 340 342 344 348 353 354 353 352 352 352 352 351 351 351 351 351 352 353 353 354 354 354 354 354 354 354 353 354 354 355 356 356 357 357 356 355 353 352 352 353 352 351 350 347 343 341 340 339 338 337 335 333 333 333 332 332 332 333 333 333 333 333 332 332 331 330
319 320 321 322 322 321 321 323 324 325 326 326 324 323 322 323 326 330 334 338 341 343 346 352 353 353 353 353 354 355 354 353 353 353 353 353 354 354 355 355 355 355 355 355 355 353 353 354 354 355 356 357 358 359 358 356 354 352 352 352 352 351 348 343 341 340 339 339 338 336 334 333 332 332 332 332 333 333 332 332 333 333 331 329 329
318 319 320 321 322 322 321 321 322 323 325 327 327 325 322 321 323 324 327 332 337 339 342 347 350 353 354 355 356 357 357 357 356 356 356 355 355 355 356 356 357 357 357 357 355 354 353 354 355 357 357 358 359 360 361 359 357 355 352 352 352 350 347 344 342 341 340 339 338 336 334 333 332 332 332 332 333 334 332 333 334 332 330 329 329
317 318 319 320 321 322 321 321 321 322 323 325 327 327 324 321 320 321 321 325 331 335 338 341 344 348 352 355 356 357 357 357 358 358 358 358 358 358 358 358 358 358 358 358 357 355 354 354 357 359 360 360 360 361 362 362 361 359 355 352 350 346 346 347 346 343 340 339 339 336 334 333 332 332 331 332 333 335 336 335 334 331 331 331 333
316 316 317 319 320 321 322 321 321 321 321 323 326 328 326 321 319 320 320 321 326 332 335 337 339 341 345 350 354 356 356 356 356 356 357 358 358 358 358 358 358 358 359 358 358 357 355 355 356 359 360 361 362 363 363 363 362 362 360 356 352 350 350 349 347 344 341 339 339 338 335 334 333 332 332 331 332 336 338 338 336 336 338 340 342
315 315 316 317 319 320 321 321 321 321 321 321 323 326 327 323 320 320 320 320 324 329 333 335 337 338 340 343 347 351 355 356 356 356 357 357 358 357 357 356 356 356 358 357 357 358 356 356 357 359 360 361 362 363 363 363 363 363 363 361 358 356 355 352 349 345 344 341 340 339 337 336 336 333 331 332 334 336 338 339 340 342 344 346 349
313 314 315 316 317 318 319 321 321 321 321 321 321 324 327 327 324 321 320 320 322 327 332 335 336 337 338 340 342 345 350 355 356 356 356 357 359 359 358 357 357 356 357 357 357 358 358 357 358 360 360 361 361 362 363 363 363 363 363 362 362 361 359 356 352 349 346 344 342 341 340 339 338 336 335 336 338 338 339 340 342 345 347 350 351
312 313 314 315 315 316 317 319 321 321 321 321 320 321 325 328 328 325 321 320 322 327 332 334 336 336 337 338 340 342 345 350 354 356 356 356 359 362 362 360 359 358 357 357 358 358 359 359 360 360 361 361 361 362 362 363 363 363 364 363 363 362 361 360 357 353 351 349 346 345 343 342 341 341 341 342 343 343 343 344 345 347 348 350 351
310 311 313 314 314 314 315 317 319 320 321 321 320 320 322 325 328 328 324 320 321 327 331 333 335 336 335 335 338 341 343 345 349 353 357 358 360 363 363 362 361 361 360 359 358 359 360 361 361 361 361 361 361 360 361 362 363 363 363 363 363 363 362 361 360 358 356 354 351 348 345 345 344 344 344 345 347 348 349 349 349 349 348 349 350
310 310 311 312 313 314 314 314 317 319 321 321 320 320 320 322 325 327 326 321 320 324 329 332 334 336 336 335 336 338 341 343 346 350 354 358 360 362 362 362 362 363 362 361 360 358 360 361 362 362 361 361 361 360 360 361 361 361 362 362 363 363 363 362 361 360 359 357 354 351 349 348 348 348 348 348 349 350 351 351 350 350 349 349 349
310 310 310 311 312 312 313 313 315 318 320 321 320 320 320 320 322 325 326 324 321 320 325 331 334 334 336 337 336 337 338 341 343 346 351 356 359 361 362 362 362 362 363 362 361 360 359 361 361 361 360 359 360 359 357 358 359 359 361 361 361 362 362 362 362 361 360 359 357 355 353 351 351 351 351 351 351 351 351 352 351 351 351 350 351
310 310 311 310 311 312 312 312 314 317 320 320 320 320 320 320 320 322 324 325 323 320 322 329 332 333 334 336 337 337 338 339 341 344 347 351 355 358 361 362 362 362 363 363 362 362 361 361 362 362 359 359 359 358 357 358 359 360 360 361 362 362 362 362 361 361 360 359 358 357 356 354 353 353 352 352 352 352 352 351 351 351 351 351 351
310 310 311 310 310 311 311 312 313 316 318 319 320 320 320 319 319 320 321 323 324 323 323 327 331 332 332 335 337 337 337 338 340 342 344 348 351 354 358 361 362 363 363 363 363 362 361 361 362 362 361 360 360 360 361 361 361 361 361 361 361 362 362 361 361 360 359 359 358 358 357 356 355 355 354 353 353 354 354 352 351 351 350 351 351
Wind_Speed
23 26 28 27 25 24 23 23 23 22 22 22 22 22 22 21 21 20 19 20 20 20 21 20 20 19 17 16 15 15 14 13 11 10 8 8 7 6 5 5 4 4 3 3 4 4 4 4 4 4 3 3 3 5 5 5 6 7 8 8 7 6 5 4 3 3 3 3 3 4 5 6 6 7 6 5 5 5 6 6 6 6 6 6 6
21 23 27 28 27 25 24 23 24 23 22 23 23 23 22 22 22 21 20 20 21 22 21 21 20 19 17 16 15 15 14 13 11 10 8 8 7 7 6 6 5 4 4 4 4 4 4 5 5 4 3 3 3 4 5 6 7 8 8 7 7 6 5 4 3 3 3 4 5 5 5 7 8 8 7 6 6 6 7 7 7 7 6 6 6
22 24 26 28 28 27 26 25 24 23 21 21 23 23 23 23 23 22 21 21 22 22 22 21 20 18 17 15 14 14 14 13 12 11 9 8 8 8 7 7 6 5 4 4 4 4 4 4 5 4 3 2 3 4 5 6 7 8 8 7 7 6 4 3 3 3 3 5 7 7 6 6 7 8 7 7 7 7 7 7 7 7 6 5 5
24 24 26 26 27 29 29 27 25 24 23 22 22 24 24 24 24 23 22 22 22 23 23 21 20 18 17 15 14 14 14 14 13 12 11 9 9 9 8 8 7 6 5 4 5 5 5 4 4 4 3 2 3 4 4 5 6 7 7 7 7 5 3 3 2 3 3 5 6 7 7 7 6 7 7 7 8 8 8 7 7 7 6 5 4
26 26 27 27 28 30 31 29 27 26 25 23 22 23 24 24 24 24 23 23 23 23 23 22 21 19 18 16 16 16 16 16 15 14 12 11 10 9 8 8 7 7 6 5 5 6 6 5 5 4 3 3 3 3 4 5 6 7 8 7 6 4 3 2 2 2 2 4 5 6 6 5 5 6 6 6 7 7 7 7 7 6 6 5 4
27 28 28 29 30 32 33 31 29 28 27 25 22 22 23 23 24 24 25 24 24 24 24 24 22 21 19 18 17 18 18 18 16 15 13 11 10 9 8 8 8 7 7 6 6 6 7 6 6 5 4 4 4 4 4 6 7 8 8 8 7 4 3 3 2 1 1 3 4 5 5 4 6 6 5 5 5 6 6 8 8 6 5 4 3
27 28 28 30 32 34 35 34 32 30 27 25 24 23 22 23 24 24 25 25 24 24 25 25 24 22 20 19 18 18 18 17 16 14 13 12 11 10 9 9 9 8 8 7 7 6 7 7 6 5 4 4 4 4 5 6 8 9 9 9 7 6 4 3 2 1 1 2 3 3 4 4 5 6 6 5 5 5 6 8 9 8 6 5 3
27 28 29 31 33 35 36 35 33 30 27 26 26 25 23 23 23 24 25 26 25 25 25 26 25 24 22 20 19 18 17 16 15 14 14 13 12 11 10 10 10 9 9 8 8 7 7 7 6 6 5 4 4 4 5 6 8 9 10 10 8 7 6 5 4 2 1 2 2 2 2 3 4 5 5 5 6 5 6 8 9 8 7 6 4
28 29 31 33 35 36 36 35 32 30 29 28 27 26 25 23 23 24 25 26 26 26 26 26 26 25 23 22 20 19 17 16 16 15 15 15 14 13 12 12 11 10 10 9 9 8 7 7 6 6 6 5 4 4 4 5 6 7 9 9 9 8 7 6 5 4 3 2 2 2 1 2 3 4 4 5 6 5 6 8 9 9 8 8 6
30 30 31 34 37 37 35 35 33 31 31 29 27 27 26 25 25 24 25 26 26 27 27 27 27 26 25 23 21 20 18 17 17 17 17 16 15 15 14 13 12 11 10 10 9 9 8 7 6 6 6 5 5 4 4 4 5 5 6 7 8 8 7 6 6 5 4 3 3 3 2 1 2 3 4 4 5 5 5 7 8 8 8 8 7
29 31 31 33 36 37 36 36 35 34 33 31 29 29 29 28 27 26 25 25 26 27 28 28 28 28 27 25 23 21 19 18 19 19 18 18 17 17 16 15 13 12 11 11 10 9 8 8 7 7 6 6 5 5 4 4 4 5 5 5 6 7 7 7 7 6 5 5 4 4 4 2 2 2 3 3 4 4 5 6 6 7 7 7 7
26 28 30 30 33 36 37 37 36 36 36 34 32 32 31 30 29 28 27 27 26 27 28 29 29 28 27 26 25 23 21 20 19 19 19 18 18 18 17 16 15 13 12 12 11 10 9 8 8 8 7 7 6 6 6 5 5 5 5 5 5 6 7 7 7 7 6 6 5 5 5 4 4 4 4 4 3 4 5 5 5 6 8 7 7
27 28 30 30 33 38 39 38 38 38 37 36 35 34 33 32 31 30 30 28 27 27 27 28 30 29 28 27 26 25 23 22 20 20 19 19 18 19 19 18 16 15 13 12 11 10 10 9 9 8 8 7 7 7 7 6 6 6 5 5 6 6 7 7 7 7 7 6 5 6 6 5 6 6 5 4 3 4 5 4 4 6 7 6 7
28 28 31 33 36 39 40 40 40 39 38 37 37 36 35 33 32 31 31 30 29 28 27 27 28 29 29 28 27 26 25 24 22 20 20 20 19 19 19 19 17 15 14 12 11 10 10 10 9 9 9 8 8 8 7 7 7 7 7 6 6 6 7 7 7 8 8 7 6 6 7 6 6 7 6 4 2 3 4 3 3 5 6 5 7
28 28 30 35 39 41 41 42 41 40 40 39 39 38 36 34 33 31 31 31 31 30 29 27 26 27 29 29 28 27 26 25 23 22 21 21 20 20 19 19 18 16 14 12 11 11 11 10 10 9 9 9 9 8 8 8 8 8 8 7 7 6 6 6 6 7 7 8 7 7 7 7 7 6 5 4 2 2 2 2 2 4 5 5 7
25 28 30 34 39 42 41 42 42 41 41 41 41 39 38 35 33 32 31 30 31 31 30 28 26 26 27 28 28 27 27 27 25 24 22 21 21 20 19 19 19 17 15 13 12 11 11 10 10 10 10 9 9 9 9 9 8 9 9 9 8 7 7 6 5 6 6 7 8 8 8 7 7 6 5 5 3 2 1 2 2 4 5 6 8
16 24 30 35 38 41 42 42 43 43 42 42 42 40 38 36 34 33 32 31 31 31 31 30 28 26 25 26 27 27 27 27 27 25 23 22 21 21 20 20 20 19 17 15 13 12 11 10 9 10 10 10 10 10 10 9 9 9 9 9 9 9 8 7 7 6 6 6 7 7 7 7 7 6 6 6 5 4 2 1 2 4 5 6 8
12 17 24 32 37 40 42 42 43 44 44 43 42 40 38 36 34 33 33 32 31 31 31 31 30 28 26 25 25 26 26 27 28 27 25 23 22 21 21 21 20 20 18 17 15 13 12 11 11 10 10 10 11 11 11 10 10 9 9 10 10 10 10 9 8 7 6 6 7 7 7 7 7 7 8 7 6 5 4 3 3 4 5 6 8
13 14 19 25 32 37 41 42 42 43 44 43 42 41 40 39 37 34 33 32 30 30 31 31 31 30 28 26 24 24 25 26 28 28 26 25 24 23 22 21 21 21 20 18 17 16 14 13 13 12 10 10 10 11 11 11 11 11 10 10 10 10 11 11 10 8 7 7 7 7 7 7 8 8 9 9 8 7 7 6 6 6 6 7 8
19 11 16 20 25 32 35 38 40 41 42 42 41 41 41 41 39 37 36 34 33 32 31 31 31 31 30 28 25 24 24 25 26 28 27 27 25 24 24 23 22 22 21 20 19 18 17 15 15 14 12 11 10 9 10 10 11 11 11 11 11 11 11 11 11 10 9 8 8 7 7 8 9 9 10 10 10 10 10 9 9 8 8 8 9
25 14 6 14 21 27 30 32 37 40 41 41 41 41 42 42 41 40 38 36 35 34 33 32 32 32 31 30 28 25 24 24 25 27 28 28 27 26 25 24 24 24 22 21 20 18 18 17 17 16 15 13 11 10 9 9 10 10 10 11 12 12 12 12 12 12 11 10 9 8 8 9 10 11 12 12 12 12 13 12 12 11 11 11 11
28 22 10 3 13 21 25 29 34 37 39 40 41 41 42 42 42 41 40 38 37 35 35 34 33 33 32 31 30 28 26 25 25 26 27 28 28 28 27 26 26 25 24 23 21 20 19 18 18 18 17 15 14 12 11 11 11 10 10 11 11 12 13 13 13 13 13 12 11 10 10 10 11 12 13 14 15 15 15 16 15 14 13 13 12
32 28 19 11 5 9 16 23 31 36 37 38 40 41 42 42 42 42 41 40 38 36 35 34 33 33 32 31 31 30 29 27 27 26 26 27 28 28 28 28 27 27 26 25 23 22 21 20 20 20 19 19 18 16 15 14 13 12 12 12 11 12 13 14 14 14 14 14 13 13 12 11 12 14 14 15 16 16 16 17 17 15 14 14 13
38 34 26 17 10 7 6 9 21 31 35 36 38 40 41 41 41 42 42 41 39 38 36 35 34 33 33 33 33 32 31 30 29 28 26 26 27 27 28 28 28 28 27 26 25 25 24 23 23 23 22 22 21 20 19 17 16 15 14 14 13 13 14 14 15 15 15 15 15 15 14 14 14 15 15 16 16 16 15 15 15 15 14 14 14
42 39 33 25 16 10 6 3 7 20 27 32 36 37 38 40 41 42 42 41 41 40 38 36 35 35 35 34 34 34 33 32 31 29 28 26 26 27 27 27 28 29 28 27 27 27 26 26 25 25 25 24 23 22 21 20 19 18 18 17 16 15 15 15 16 16 16 17 17 16 16 15 16 17 17 17 16 16 16 15 15 15 14 14 14
43 42 40 34 26 19 13 9 4 7 14 22 31 35 36 38 39 40 41 41 41 41 40 38 37 37 37 36 35 35 35 33 32 30 29 28 27 27 27 27 27 28 29 28 28 28 28 27 27 26 26 26 26 25 24 23 22 21 21 20 19 18 17 17 17 17 18 18 18 18 17 17 17 18 18 17 17 17 17 16 16 15 14 14 14
41 41 41 39 34 28 22 15 10 4 5 11 19 26 31 36 38 38 39 40 41 41 41 40 39 39 38 36 35 35 34 34 33 31 31 30 29 29 28 27 27 27 28 29 29 29 29 28 28 27 28 28 27 27 26 25 24 24 23 22 21 20 20 19 19 19 19 19 20 19 19 18 18 19 18 18 18 18 18 18 17 16 15 15 15
38 38 39 40 38 35 30 23 16 9 3 5 11 17 23 30 35 37 38 39 40 40 40 40 39 40 40 37 35 35 34 34 33 32 31 31 30 30 29 28 28 28 28 28 29 30 30 30 30 30 29 29 29 30 29 28 27 26 25 24 23 23 22 22 21 20 21 21 22 22 21 20 19 19 19 19 18 19 19 19 18 17 17 17 17
32 35 36 37 37 37 34 30 24 17 11 5 3 11 17 23 28 33 37 39 39 39 39 39 39 40 40 38 36 36 35 34 34 33 32 32 32 31 30 30 30 29 29 29 29 29 30 30 31 31 31 31 32 32 31 30 29 28 27 26 26 25 24 24 23 23 23 23 23 24 24 23 21 20 20 20 20 19 19 19 19 19 18 18 18
28 30 31 32 34 34 34 33 30 25 20 14 8 0 8 16 21 26 31 36 39 39 37 38 39 39 38 38 38 37 36 35 34 34 33 32 32 32 31 31 30 30 30 30 29 29 29 30 30 31 32 33 34 34 32 31 30 29 29 28 28 26 25 25 25 25 25 25 25 25 26 25 24 23 22 21 21 20 20 20 20 20 20 20 20
26 27 27 28 30 32 32 32 31 30 27 21 15 9 3 7 15 21 25 29 35 38 38 38 38 38 37 38 38 38 37 36 34 33 33 33 33 32 32 31 31 30 30 30 30 30 30 30 30 31 31 33 34 34 32 31 31 30 30 29 28 27 26 27 27 27 27 26 26 26 26 26 26 25 25 24 23 22 21 21 21 20 21 21 21
25 26 26 25 26 28 30 30 30 30 30 27 20 14 10 4 8 15 22 26 29 34 37 38 38 37 36 37 38 38 38 37 35 34 33 33 33 33 33 32 32 31 30 30 30 30 30 29 29 30 31 32 34 34 33 32 31 31 30 30 29 28 28 28 28 28 28 27 27 27 27 27 27 27 26 26 25 24 23 22 22 21 22 22 23
24 25 25 24 23 23 25 27 28 29 30 29 23 18 14 10 5 7 15 23 27 30 35 37 38 38 37 36 37 37 38 37 36 35 33 33 33 33 32 32 32 31 31 31 31 30 30 29 30 30 30 31 33 34 34 33 32 32 31 31 30 30 29 29 29 29 29 28 28 28 28 28 28 27 27 27 26 26 25 24 24 23 24 24 24
24 25 24 23 22 21 21 22 24 26 28 29 26 20 16 14 9 6 8 17 25 29 32 36 37 38 37 37 36 36 37 36 36 35 35 34 34 32 31 30 31 31 32 31 31 31 31 30 30 30 30 30 31 32 33 33 33 33 32 32 31 31 30 30 30 30 29 29 29 29 29 29 29 28 28 27 26 26 26 25 25 25 25 25 25
23 24 24 23 22 21 20 19 20 22 25 28 28 23 19 17 13 7 5 8 17 24 29 33 36 37 37 37 37 36 35 35 35 35 36 35 34 33 32 31 31 31 30 29 29 30 30 30 29 29 30 30 31 31 31 31 32 32 32 31 31 31 31 31 31 31 30 30 30 30 30 30 30 30 29 28 27 26 26 26 26 27 27 27 26
22 23 23 23 22 21 20 18 17 19 22 24 27 26 22 20 17 12 7 6 7 15 23 28 31 34 36 37 36 35 35 35 35 35 36 35 34 33 32 32 33 33 31 30 30 30 30 30 29 30 30 31 31 31 31 31 30 30 30 30 30 31 31 31 32 31 31 31 31 31 31 31 31 31 30 29 27 26 26 27 27 28 28 28 28
20 21 20 21 21 19 19 18 16 16 18 21 24 26 23 21 19 16 13 10 8 6 14 22 26 28 32 35 36 36 35 34 35 35 35 34 33 32 32 32 33 34 34 34 33 32 32 32 31 31 32 32 33 32 31 31 30 29 29 30 31 31 31 32 32 32 32 32 32 32 32 32 32 32 31 29 28 27 28 28 28 29 29 30 30
18 20 20 19 20 19 18 19 17 15 15 17 21 24 24 22 19 18 16 13 10 8 5 15 23 26 29 32 34 36 36 35 36 36 35 34 33 33 32 32 32 33 34 34 33 33 33 33 34 34 34 34 33 33 32 31 31 30 30 30 31 31 32 32 32 32 33 33 33 33 32 32 33 33 31 30 28 28 29 29 29 29 30 31 32
17 19 20 20 20 19 19 19 18 16 15 15 17 20 23 24 21 18 16 13 10 9 2 10 21 26 28 29 31 33 35 36 37 36 35 35 34 33 32 32 32 33 34 34 34 34 33 32 33 35 35 35 33 32 32 31 31 30 30 31 31 32 33 33 33 33 33 33 33 33 33 34 34 33 31 30 29 29 30 30 30 29 31 33 33
18 18 19 20 20 20 19 20 21 19 17 15 15 16 19 23 23 21 19 15 11 9 4 6 14 20 25 29 30 30 32 34 36 37 37 37 36 34 34 34 33 33 34 34 35 35 34 32 31 32 35 35 34 32 31 30 29 29 30 31 32 33 34 35 35 35 34 34 34 34 34 35 34 34 32 31 31 30 31 31 30 31 33 35 33
19 19 18 20 21 20 20 20 20 21 20 16 15 15 16 19 22 24 25 22 16 12 8 6 7 11 18 25 27 27 27 29 32 34 34 35 36 37 37 36 35 35 35 35 35 36 36 33 30 29 30 32 32 31 29 27 26 27 29 31 33 35 36 36 36 36 35 35 35 35 35 35 34 33 33 32 32 31 31 31 31 32 33 33 32
20 20 19 19 21 21 20 19 19 21 21 19 16 15 14 17 21 24 27 26 22 15 10 8 8 8 12 17 22 25 26 27 29 29 30 32 34 35 36 36 35 36 36 36 35 37 37 36 32 30 29 31 31 30 28 26 24 24 27 29 33 36 36 35 36 37 37 36 36 36 35 34 33 33 33 32 32 31 30 31 32 32 31 30 29
21 22 20 19 20 22 21 20 18 20 21 20 18 15 14 16 20 23 25 26 25 21 14 9 8 8 9 12 16 21 23 27 28 28 28 30 33 34 35 35 36 36 37 37 37 37 38 38 37 34 32 32 31 29 28 27 25 24 25 27 31 33 33 33 36 38 38 37 37 36 35 32 31 32 32 32 32 31 29 29 30 29 27 25 24
22 22 21 20 21 22 22 21 19 19 20 20 19 17 14 15 18 21 24 25 25 24 19 12 7 7 7 9 13 17 20 24 26 25 24 26 31 34 36 37 37 37 37 38 38 38 39 39 38 37 34 33 31 28 27 27 26 25 25 26 27 28 29 32 35 37 38 37 37 36 34 30 30 32 33 33 31 30 29 28 27 24 22 21 21
23 22 21 21 21 22 23 23 21 19 20 20 20 19 16 13 14 18 22 24 24 25 22 16 10 7 6 7 10 15 19 22 23 23 22 23 28 31 33 35 38 37 37 37 37 36 37 39 39 37 33 30 29 27 26 26 26 25 25 25 25 26 27 29 32 35 37 36 36 35 32 30 30 31 32 32 31 30 30 28 26 23 22 23 23
24 24 22 21 22 23 23 24 22 20 19 19 19 20 18 14 12 13 17 20 23 24 23 20 16 11 8 7 8 11 16 19 21 21 22 25 27 28 28 30 32 34 36 37 36 33 32 33 36 34 29 27 29 29 26 25 25 24 25 25 25 26 26 27 30 32 33 33 33 32 31 30 30 31 31 31 31 30 29 27 26 25 26 26 26
26 25 24 24 24 25 25 25 24 21 20 19 19 20 19 16 13 11 13 17 20 22 23 23 20 17 13 10 9 10 13 17 19 21 25 28 29 28 28 28 28 27 30 35 37 36 32 28 29 29 25 25 30 31 28 26 25 24 24 25 25 26 27 27 29 30 30 30 30 30 30 31 31 31 31 32 31 30 29 29 29 29 29 29 29
28 27 26 26 27 27 26 26 26 24 21 20 19 19 20 18 15 13 13 15 17 20 23 23 23 22 19 15 13 13 14 15 18 22 27 30 31 29 28 29 28 25 26 31 36 37 35 29 25 25 25 25 30 33 30 28 27 24 21 22 23 25 26 27 28 28 27 27 28 29 30 32 32 33 33 33 34 33 32 31 31 31 31 30 30
29 28 28 27 27 28 28 27 26 24 23 22 20 20 20 20 18 15 14 15 16 20 23 23 22 23 23 20 17 17 17 17 18 21 26 31 33 32 30 31 32 29 28 31 33 35 37 31 24 25 31 32 32 32 28 25 25 23 21 22 22 23 24 25 24 24 24 26 27 29 31 34 35 36 35 36 36 36 35 33 32 32 32 31 31
29 29 29 29 28 27 28 28 26 24 24 24 22 21 21 21 20 18 16 15 15 18 21 22 21 22 24 25 23 20 19 20 20 21 25 30 33 34 32 33 35 33 32 33 34 36 38 34 27 28 34 37 35 32 28 26 26 25 24 23 22 21 21 21 20 21 24 27 29 31 33 35 37 38 38 38 38 37 36 35 34 34 34 33 33
28 29 30 30 29 27 28 28 27 25 25 26 25 23 22 21 21 20 19 17 15 17 19 20 21 21 24 28 28 24 21 21 21 21 23 27 31 33 33 33 34 34 35 36 37 38 39 38 35 34 36 38 37 34 32 31 29 27 24 22 21 20 19 18 18 20 24 27 30 32 34 36 38 40 40 39 38 37 38 36 35 35 35 35 35
Wind_Direction
204 209 212 213 214 213 213 212 211 210 210 210 210 210 209 206 205 204 201 197 196 194 192 190 188 187 188 189 187 183 182 178 176 176 172 166 163 155 152 156 157 150 144 137 134 130 123 121 123 122 114 110 118 124 133 141 141 143 143 139 137 138 132 122 116 102 85 55 32 24 31 47 62 67 70 74 74 75 75 74 77 79 78 77 77
200 205 211 214 216 216 215 214 213 211 209 208 211 213 212 210 208 206 204 199 197 195 194 193 192 191 191 190 189 189 187 183 181 181 179 176 171 165 163 164 161 152 143 136 138 136 126 120 118 119 119 115 121 136 146 147 147 148 147 144 143 140 128 115 104 87 68 35 27 33 42 55 63 64 64 68 66 63 64 67 71 70 68 69 70
198 203 208 212 216 218 219 218 215 213 210 209 211 213 215 214 212 210 208 203 199 198 197 198 198 196 195 194 193 194 192 187 184 184 185 184 177 171 170 170 165 156 145 136 134 137 133 127 125 124 126 126 139 155 157 152 153 153 150 149 149 145 131 121 103 76 53 32 33 42 58 71 68 60 61 65 60 54 53 54 56 54 52 55 57
199 202 205 208 211 217 221 221 219 217 215 213 212 213 216 217 215 213 211 207 204 201 200 201 202 202 202 200 197 197 196 192 190 190 189 186 180 175 175 175 171 167 158 144 138 142 144 139 136 133 133 143 152 159 166 167 163 159 154 152 155 153 139 129 106 74 47 34 36 43 59 74 64 48 56 65 62 58 53 48 43 39 37 39 40
202 202 204 205 208 215 221 222 221 221 219 215 214 214 216 219 218 216 216 212 208 205 203 203 204 205 206 204 202 201 199 197 196 195 190 185 180 177 180 180 176 175 172 163 155 154 155 151 146 143 142 154 159 162 185 187 177 170 165 165 168 163 149 142 119 85 47 34 41 43 51 61 41 32 50 63 62 60 52 44 39 35 30 27 27
205 205 204 205 209 216 222 223 223 224 222 218 216 215 217 220 220 218 218 217 213 209 206 206 206 207 209 209 207 204 202 201 200 197 192 185 179 178 183 185 181 180 178 175 171 166 164 159 154 152 150 160 169 176 193 196 191 185 180 184 188 180 164 157 141 108 44 26 33 31 31 31 17 19 33 44 57 64 52 37 33 35 35 24 15
206 207 206 207 209 215 221 223 224 224 224 221 219 218 218 218 220 220 219 219 218 213 210 210 210 210 213 214 214 210 207 204 200 197 193 187 183 182 184 187 186 183 181 182 181 179 176 169 164 162 159 163 171 182 192 195 199 199 197 201 203 199 194 189 185 181 9 3 5 7 15 23 19 18 20 19 27 46 46 33 28 32 37 31 18
204 205 207 209 211 216 220 222 223 224 224 223 221 220 219 218 218 219 220 220 221 217 214 213 214 214 214 216 217 215 212 207 201 198 196 193 189 187 187 188 188 186 185 185 187 189 187 182 177 173 170 167 165 177 189 194 200 205 208 212 212 211 217 221 223 233 271 315 327 340 360 20 30 27 24 19 7 8 27 29 30 39 46 43 39
206 206 208 211 215 219 221 223 224 224 225 224 223 222 221 220 219 219 220 221 221 221 218 217 218 218 218 217 218 216 213 208 204 202 201 199 194 191 189 189 191 190 188 188 192 195 194 193 189 182 180 174 163 170 183 191 196 202 210 216 218 221 225 229 234 238 237 254 297 305 309 357 18 20 16 17 6 356 8 14 19 37 49 47 48
209 209 210 214 220 222 222 224 225 224 225 226 225 224 223 223 222 220 220 220 221 222 221 221 220 221 222 220 219 218 214 209 207 206 204 202 199 195 191 191 193 193 192 193 196 199 200 201 198 190 188 184 176 175 183 192 195 198 206 213 219 221 221 224 225 224 228 239 270 266 239 284 344 360 359 3 2 355 358 3 7 19 30 35 43
211 212 212 215 221 224 222 223 225 225 226 227 226 226 225 225 225 223 222 222 221 221 222 223 223 223 225 224 223 222 219 214 211 209 207 205 202 197 194 192 193 194 196 198 200 203 205 206 204 197 195 193 188 187 192 201 206 208 208 209 215 216 216 222 221 222 233 243 254 245 229 249 295 316 322 329 347 347 348 357 1 10 19 23 33
214 213 213 212 217 221 222 222 225 225 226 227 227 227 227 227 227 227 226 224 223 222 221 223 224 225 226 227 226 225 224 221 215 212 211 210 206 200 196 195 196 197 199 199 200 204 209 211 209 204 201 197 194 195 202 209 215 216 215 213 214 217 220 223 223 226 231 236 244 235 225 241 264 289 305 308 320 326 337 351 354 5 14 14 25
216 215 214 212 214 219 222 222 224 225 226 227 227 228 229 229 229 230 229 226 225 224 222 222 223 226 227 228 228 227 227 226 222 217 214 214 211 205 201 200 201 201 202 201 200 204 211 214 214 213 209 204 199 199 205 211 216 217 215 216 217 221 227 226 224 223 220 226 237 227 224 239 260 278 288 286 306 319 334 348 344 355 4 7 24
216 215 214 216 218 220 223 223 225 226 227 228 227 228 230 230 230 231 231 229 227 226 225 223 223 225 227 228 229 229 228 228 226 222 217 216 215 212 209 208 207 207 208 206 206 210 213 215 217 219 216 211 205 202 207 211 214 216 214 215 218 221 226 227 224 220 217 223 231 225 226 240 261 277 275 260 294 325 337 350 339 353 7 9 21
219 216 215 219 223 224 223 224 226 226 227 227 227 228 229 230 230 230 231 231 229 228 227 225 224 225 227 228 229 230 229 229 228 225 222 218 218 218 217 216 215 215 215 215 216 217 218 218 219 221 221 219 213 208 209 214 217 220 220 218 221 226 228 226 224 221 220 223 227 227 229 243 263 271 256 241 258 316 356 28 3 2 12 11 20
225 220 218 221 225 226 224 224 226 226 227 227 227 229 229 229 230 230 231 231 230 230 229 228 227 226 227 228 229 229 229 229 229 227 225 222 221 221 221 222 221 221 221 220 222 222 222 223 223 224 225 225 224 219 216 218 219 223 225 225 228 232 231 230 228 224 222 225 229 232 231 238 253 250 233 230 233 251 341 48 11 360 6 5 11
250 232 223 221 225 227 225 224 226 226 226 227 228 230 230 230 230 230 230 231 231 231 230 230 230 229 229 229 229 229 228 229 229 228 226 224 223 222 223 223 222 223 223 222 224 226 228 230 229 228 229 229 230 229 226 225 225 227 229 230 233 237 238 238 239 235 230 229 231 232 231 234 237 231 228 231 231 238 255 306 331 336 349 356 358
286 254 235 225 224 227 226 225 226 227 228 228 230 231 231 231 231 230 230 230 230 231 231 231 231 231 231 229 229 229 228 228 229 229 229 227 225 224 223 221 220 221 222 221 224 227 231 236 236 232 230 230 231 231 233 234 235 236 236 235 236 240 243 244 247 245 239 239 238 231 228 228 227 224 227 234 239 245 254 269 292 308 324 341 345
319 272 248 232 224 226 227 225 225 228 229 230 231 231 230 231 232 231 231 231 230 231 231 232 232 232 232 231 229 229 229 229 230 230 230 230 228 226 223 221 220 220 221 222 225 226 229 235 237 233 227 226 228 231 235 239 243 245 246 247 245 243 244 246 248 246 241 242 245 239 230 225 224 225 230 238 248 255 260 268 280 292 307 321 331
352 305 255 239 226 224 226 225 225 227 230 231 230 230 230 231 232 232 232 232 232 231 231 231 231 232 233 233 231 230 230 230 230 230 230 230 229 228 225 223 221 221 223 225 227 228 228 230 233 233 228 225 225 229 235 241 246 250 252 253 254 251 248 245 244 242 238 238 242 244 238 230 229 231 235 243 253 262 268 273 278 285 296 308 319
9 3 281 240 230 226 225 225 227 228 230 230 229 229 230 231 232 233 233 233 232 232 232 232 232 232 233 233 233 232 231 232 231 231 230 230 230 230 229 227 225 225 225 227 230 231 230 229 230 231 230 230 228 230 236 242 249 253 255 256 256 256 252 247 243 240 237 236 237 241 241 236 235 236 239 245 252 261 269 273 277 282 289 299 308
19 27 42 189 225 227 224 224 227 229 229 229 229 229 230 231 233 233 233 233 233 232 233 232 232 233 233 234 234 234 233 233 233 232 231 230 231 231 231 230 230 229 229 230 232 233 233 230 230 230 231 234 236 237 239 243 248 254 257 259 258 257 255 251 246 242 240 240 238 238 240 240 240 240 241 246 252 260 265 268 273 278 283 291 298
28 34 47 70 139 205 215 221 229 231 230 229 228 229 230 232 234 234 234 235 234 234 234 233 233 234 234 235 235 235 235 235 235 235 233 231 231 231 232 233 234 234 234 234 234 234 235 233 233 234 235 238 241 243 245 248 251 255 259 262 262 260 258 255 252 248 245 244 243 241 240 241 244 244 245 248 253 258 261 263 267 271 277 284 290
35 36 40 53 85 131 169 210 227 229 228 227 227 229 232 233 234 234 236 237 236 236 236 235 234 234 235 236 236 236 237 236 237 237 235 234 232 232 232 233 235 237 238 238 238 238 238 238 239 239 240 242 243 245 248 250 253 256 259 263 264 264 262 259 257 255 252 248 246 244 242 241 244 246 247 248 251 255 258 260 263 266 273 280 286
39 38 37 40 50 61 63 78 208 220 225 228 229 231 233 234 235 236 236 238 237 237 238 237 236 235 235 236 236 236 238 238 238 238 237 237 236 235 234 233 235 237 239 241 241 242 243 242 243 243 243 244 244 245 248 251 255 258 260 263 264 265 265 263 260 258 256 254 250 247 243 240 242 244 245 247 249 253 256 258 261 265 271 277 280
40 39 39 38 37 38 38 42 80 191 216 229 233 234 234 234 236 237 237 238 238 238 239 239 238 236 236 237 237 237 238 239 239 239 239 239 239 239 238 236 236 237 239 241 242 244 246 247 247 247 247 246 246 247 249 250 255 258 260 262 264 263 263 263 261 258 256 255 254 252 248 243 242 243 244 246 248 251 254 256 260 263 267 271 274
40 38 38 39 37 36 36 36 43 89 187 215 226 232 233 234 236 237 237 238 239 239 240 240 240 238 238 239 239 239 239 240 241 241 241 241 241 241 241 241 240 240 241 241 242 243 246 248 249 250 250 249 249 250 250 251 254 257 259 262 263 263 262 260 259 257 255 253 253 253 252 248 245 244 245 246 248 249 252 255 258 261 263 265 268
42 39 35 36 37 36 35 34 35 42 72 182 206 217 225 233 238 238 237 238 240 241 241 241 241 240 241 241 241 241 241 242 243 243 243 243 243 244 244 243 243 243 243 244 244 244 245 246 248 249 250 251 251 251 252 252 253 255 258 260 262 263 262 260 258 256 254 251 249 250 252 251 248 246 246 247 249 249 251 254 256 258 260 262 265
39 41 36 33 33 34 33 32 33 35 40 53 184 207 215 225 233 237 239 239 240 241 241 241 241 241 243 244 243 242 243 243 244 244 244 244 245 245 245 245 245 245 245 245 245 245 245 245 246 247 248 250 251 252 252 252 253 254 256 259 261 261 261 260 258 255 253 250 247 247 249 249 248 247 247 248 248 249 250 252 255 257 258 260 263
28 37 38 34 31 30 29 29 29 29 29 29 30 77 218 221 223 230 237 240 241 243 242 240 241 244 246 246 245 244 244 244 245 245 245 245 245 246 246 246 246 246 246 246 246 246 246 246 245 245 246 248 250 251 251 252 253 255 256 258 259 259 259 258 256 255 253 250 247 246 246 248 248 246 246 247 248 248 250 251 254 256 257 259 261
18 27 34 35 32 29 27 26 25 24 22 19 18 18 349 236 223 223 228 235 241 245 244 241 243 246 246 245 246 246 245 246 246 246 247 246 246 247 247 247 247 248 248 248 248 248 247 247 247 246 246 247 248 250 251 252 253 254 255 256 257 257 256 256 255 254 252 250 248 246 246 247 247 246 246 246 247 249 250 251 252 253 255 257 258
11 17 25 31 32 31 28 24 22 20 18 14 11 7 359 321 239 229 225 226 234 242 244 243 245 246 246 245 246 246 246 247 247 247 248 248 248 248 248 249 249 249 249 250 250 250 249 249 249 249 247 247 248 249 249 250 251 251 252 253 253 254 254 253 253 252 251 250 249 247 247 247 247 247 246 246 247 247 249 250 251 252 253 254 256
7 11 16 21 26 29 28 24 21 20 17 13 9 3 355 349 323 262 239 228 226 234 241 244 245 245 245 246 246 246 248 248 249 249 249 249 249 249 249 250 250 250 251 251 252 252 252 251 251 251 250 249 250 249 248 248 248 248 248 249 249 250 250 251 251 250 250 250 249 248 248 248 248 248 247 246 246 247 248 249 250 251 252 253 254
4 8 10 12 16 21 26 25 19 18 17 11 8 6 356 348 351 341 277 244 231 230 235 240 244 245 246 246 246 247 248 250 250 250 250 249 249 249 250 250 250 251 252 252 253 253 254 253 253 254 254 254 253 251 249 247 246 246 246 245 246 247 248 248 248 248 248 248 248 248 248 248 249 248 247 246 247 247 248 249 250 251 253 253 254
360 3 3 6 8 9 16 21 14 9 11 8 6 6 0 350 346 352 341 279 248 236 233 236 241 244 245 245 246 248 249 251 251 250 250 250 250 250 250 249 249 250 250 250 251 251 252 252 252 254 255 255 254 253 250 247 245 243 243 243 244 245 246 247 247 246 246 247 247 247 247 248 249 249 247 246 246 247 248 249 250 252 254 255 255
354 356 357 360 2 360 2 8 7 2 3 5 5 4 3 358 348 338 346 343 282 243 234 234 237 241 244 245 247 249 250 251 251 250 250 251 251 252 251 250 250 250 250 249 247 246 245 244 244 246 250 252 251 251 251 248 245 242 242 243 242 243 244 246 246 246 246 246 246 246 246 247 248 249 248 247 246 248 248 249 250 252 254 257 257
347 350 352 353 353 352 352 355 360 1 2 4 5 2 1 3 358 345 332 333 332 281 237 231 231 236 240 244 247 249 251 251 251 250 251 251 252 252 252 252 251 250 250 250 249 248 247 245 242 241 241 243 245 246 247 247 245 244 244 245 243 242 243 244 245 246 246 246 246 246 246 246 246 247 247 246 246 247 248 249 251 252 254 256 257
340 342 345 347 347 347 347 349 351 358 4 3 2 1 358 359 4 360 343 329 327 333 272 226 227 231 234 238 243 246 248 250 250 251 252 252 252 252 252 251 251 251 250 250 250 251 252 252 250 247 243 241 241 242 243 243 243 243 244 245 244 243 243 243 243 244 245 245 246 246 246 246 246 245 245 244 244 245 247 249 250 252 253 255 256
334 335 335 339 342 342 342 344 344 348 358 1 357 357 356 356 0 3 356 343 319 322 338 199 219 230 233 236 241 244 245 247 248 250 251 252 253 253 253 253 253 253 253 252 250 249 249 250 251 252 250 247 243 241 241 240 239 240 242 243 244 245 244 242 242 243 244 244 245 245 245 245 246 246 244 243 242 243 245 248 249 251 252 254 255
327 327 326 328 333 336 338 341 342 341 347 354 354 351 349 351 357 1 358 352 334 324 328 197 215 226 229 234 238 242 244 246 247 249 250 252 253 254 254 254 254 254 255 254 252 250 249 248 247 248 251 251 248 244 242 239 236 236 238 240 242 243 242 240 240 241 242 243 244 245 245 245 245 246 245 244 243 242 243 246 248 249 251 254 257
317 319 319 320 323 328 333 336 339 340 341 345 351 353 346 341 347 352 352 349 343 332 318 286 255 233 229 232 234 237 241 244 246 248 250 251 253 253 254 255 254 255 256 254 252 251 250 249 247 247 249 250 248 246 244 242 238 235 235 237 239 240 239 239 240 240 241 242 243 244 245 245 245 245 245 245 244 243 243 245 246 248 251 254 257
308 310 314 316 316 319 324 329 335 338 338 339 342 347 343 332 330 336 340 342 340 332 317 303 291 267 248 240 235 236 241 243 246 249 251 252 252 252 253 254 253 255 256 254 253 252 251 251 250 249 251 251 250 248 248 246 241 236 235 236 237 238 238 240 241 241 240 240 241 243 244 244 244 245 245 246 246 245 244 244 246 249 252 254 257
303 304 309 312 311 312 315 321 328 333 335 336 335 336 338 332 326 326 330 334 334 329 319 308 298 290 279 258 241 239 243 245 246 247 249 253 254 252 251 251 251 252 253 253 253 252 252 252 251 250 251 252 251 249 249 248 245 241 238 237 237 239 240 241 242 242 240 240 241 242 243 242 242 243 244 245 247 247 247 247 248 250 253 255 257
294 297 300 304 307 308 308 311 319 326 331 334 332 331 333 330 324 322 323 327 330 327 320 313 301 291 287 272 256 250 249 247 245 243 245 251 254 252 250 249 248 248 250 251 251 250 250 250 250 250 250 250 248 247 248 250 248 245 243 241 240 241 242 241 242 242 242 242 242 243 243 242 241 241 243 245 246 247 248 248 248 249 251 253 254
287 289 293 297 300 302 302 304 309 315 323 329 329 328 328 326 322 320 318 320 325 325 322 319 311 293 280 274 265 259 257 255 251 247 245 249 253 252 249 247 246 245 246 247 247 247 247 248 249 249 248 246 244 244 247 249 249 248 248 246 245 245 244 243 243 243 243 243 244 244 244 243 241 240 242 243 244 244 244 245 245 245 245 248 250
283 282 284 287 291 294 296 298 301 305 313 320 325 325 322 321 323 321 314 314 319 322 322 321 317 303 285 275 271 263 259 259 258 255 250 247 249 252 250 247 246 245 244 244 244 244 244 245 246 246 245 244 245 245 245 247 249 249 249 249 249 248 246 245 246 246 246 246 246 246 245 244 242 240 241 242 242 242 242 242 242 242 242 244 246
283 279 279 281 284 288 292 294 295 299 303 309 317 320 318 316 318 318 309 306 311 318 321 322 319 311 296 280 280 279 266 257 254 252 249 245 245 247 248 248 246 242 241 243 244 243 242 241 243 244 242 243 248 248 245 243 245 247 248 250 251 251 249 247 246 246 246 246 246 244 243 243 242 241 240 241 241 241 240 238 238 239 239 241 244
285 279 278 278 279 282 286 288 290 292 296 300 307 313 314 312 311 308 300 294 298 307 315 319 319 314 305 292 284 285 279 265 253 248 247 246 244 244 245 247 248 245 242 243 245 247 245 241 240 244 245 247 252 252 249 245 245 245 245 247 248 249 248 247 247 247 247 247 247 245 243 242 242 241 240 240 240 240 240 238 238 239 240 242 243
288 282 278 276 275 277 280 282 283 286 290 293 298 306 310 310 309 306 297 288 286 294 304 312 315 313 310 303 292 285 283 278 265 253 247 245 244 244 243 243 245 246 247 248 249 250 251 249 246 252 257 259 259 258 255 252 251 251 250 251 252 251 252 252 253 254 253 251 249 246 243 243 243 242 241 240 241 242 242 241 240 240 242 243 244
287 284 280 275 272 273 275 277 278 280 283 287 292 299 305 307 307 306 301 291 281 280 289 301 306 307 309 308 302 293 288 285 277 264 254 248 244 243 244 246 245 245 247 251 254 254 254 253 253 257 262 263 264 264 266 266 265 264 263 263 263 263 262 261 260 259 257 254 251 247 245 244 245 245 244 242 242 244 244 243 241 242 243 244 245
284 282 279 275 271 269 270 273 274 276 279 281 286 292 298 302 304 304 303 296 280 269 275 289 297 298 302 307 307 302 295 289 282 274 267 259 250 244 242 246 250 251 249 250 254 256 256 255 255 257 260 263 265 266 268 269 268 267 266 267 267 268 268 266 263 261 257 254 253 251 249 248 248 248 248 246 245 246 247 245 243 244 244 245 246